EW2941 Weather Reports


Display with metric or nautical units.
time (UTC)temp
F
wind
direction
speed
MPH
gust
MPH
rain 1hr
in
rain 24hr
in
rain mn
in
humidity
%
barometer
mb
20260504120108 50 170 0.0 0.0 0.00 0.00 0.00 78 1014.3
20260504081512 46 170 0.0 0.0 0.00 0.00 0.00 79 1014.8
20260504044516 46 170 0.0 0.0 0.00 0.00 0.00 77 1014.6
20260504043102 46 170 0.0 0.0 0.00 0.00 0.00 78 1014.6
20260504041535 46 170 0.0 0.0 0.00 0.00 0.00 78 1014.5
20260504040011 45 170 0.0 0.0 0.00 0.00 0.00 78 1014.6
20260504034553 45 170 0.0 0.0 0.00 0.00 0.00 78 1014.6
20260504033035 44 170 0.0 0.0 0.00 0.00 0.00 78 1014.5
20260504031504 44 170 0.0 0.0 0.00 0.00 0.00 77 1014.6
20260504030049 45 170 0.0 0.0 0.00 0.00 0.00 76 1014.6
20260504024538 45 170 0.0 0.0 0.00 0.00 0.00 75 1014.5
20260504023012 46 170 0.0 0.0 0.00 0.00 0.00 74 1014.6
20260504021536 46 170 0.0 0.0 0.00 0.00 0.00 74 1014.6
20260504020018 47 170 0.0 0.0 0.00 0.00 0.00 72 1014.3
20260504014600 48 170 0.0 0.0 0.00 0.00 0.00 71 1014.4
20260504013037 48 170 0.0 0.0 0.00 0.00 0.00 71 1014.3
20260504011507 49 170 0.0 0.0 0.00 0.00 0.00 70 1014.1
20260504010057 50 170 0.0 0.0 0.00 0.00 0.00 69 1014.0
20260504004532 51 170 0.0 0.0 0.00 0.00 0.00 65 1014.0
20260504003013 52 170 0.0 0.0 0.00 0.00 0.00 64 1013.8
20260504001608 53 170 0.0 0.0 0.00 0.00 0.00 60 1013.7
20260504000035 54 170 0.0 0.0 0.00 0.00 0.00 59 1013.6
20260503234515 56 170 0.0 0.0 0.00 0.00 0.00 56 1013.4
20260503233058 56 170 0.0 0.0 0.00 0.00 0.00 49 1013.3
20260503231544 57 170 0.0 0.0 0.00 0.00 0.00 46 1013.2
20260503230013 58 170 0.0 0.0 0.00 0.00 0.00 43 1013.2
20260503224554 58 170 0.0 0.0 0.00 0.00 0.00 45 1013.2
20260503223039 59 170 0.0 0.0 0.00 0.00 0.00 44 1013.4
20260503221505 60 169 0.0 2.0 0.00 0.00 0.00 41 1013.4
20260503220047 60 262 0.0 1.0 0.00 0.00 0.00 41 1013.5
20260503214531 60 323 0.0 3.0 0.00 0.00 0.00 43 1013.4
20260503213013 61 210 0.0 4.0 0.00 0.00 0.00 38 1013.6
20260503211610 61 262 0.0 1.0 0.00 0.00 0.00 39 1013.6
20260503210023 61 1 0.0 6.0 0.00 0.00 0.00 36 1013.6
20260503204505 61 322 0.0 3.0 0.00 0.00 0.00 38 1013.5
20260503203047 61 347 0.0 2.0 0.00 0.00 0.00 41 1013.7
20260503201515 61 234 0.0 3.0 0.00 0.00 0.00 38 1014.0
20260503200055 61 314 0.0 4.0 0.00 0.00 0.00 41 1014.3
20260503194537 60 277 0.0 3.0 0.00 0.00 0.00 39 1014.5
20260503193018 60 283 0.0 2.0 0.00 0.00 0.00 38 1014.8
20260503191602 61 2 0.0 1.0 0.00 0.00 0.00 40 1014.9
20260503190037 61 307 0.0 2.0 0.00 0.00 0.00 41 1015.1
20260503184509 61 206 0.0 3.0 0.00 0.00 0.00 39 1015.3
20260503183052 61 314 0.0 2.0 0.00 0.00 0.00 38 1015.6
20260503181521 61 22 1.0 4.0 0.00 0.00 0.00 39 1015.5
20260503180012 61 351 0.0 2.0 0.00 0.00 0.00 40 1015.6
20260503174601 62 347 0.0 4.0 0.00 0.00 0.00 40 1015.7
20260503173028 60 330 0.0 4.0 0.00 0.00 0.00 41 1015.8
20260503171559 61 77 0.0 4.0 0.00 0.00 0.00 45 1016.0